Location: Kernascl�den
(48.0062°N, 3.3198°W)
Time: 17:13:30
(UTC+00:00)

COSMOS 2406 - Pass Details

Date: 21 January 2021
Orbit: 841 x 866 km, 71.0° (Epoch: 28 February)

Event Time Altitude Azimuth Distance (km) Brightness Sun altitude
Rises 18:55:55 0° 335° (NNW) 3,459 6.6 -19.6°
Reaches altitude 10° 18:58:32 10° 343° (NNW) 2,518 5.8 -20.1°
Maximum altitude 19:04:01 41° 53° (NE) 1,230 3.6 -21.0°
Enters shadow 19:04:31 41° 66° (ENE) 1,245 3.6 -21.1°
